QPF
0.18 0.20 0.19 0.18 0.15 0.16 0.16 0.18 0.16 0.15 0.13 0.09 0.07 0.06 0.05 0.04 0.04 0.04 0.04 0.02 0.02 0.02 0.02 0.03 0.04 0.04 0.02 0.02 0.02 0.02 0.02 0.03 0.06 0.05 0.04 0.05 0.04 0.04 0.06 0.06 0.05 0.04 0.02
0.18 0.20 0.20 0.17 0.13 0.13 0.13 0.18 0.16 0.15 0.14 0.10 0.07 0.05 0.05 0.05 0.05 0.04 0.04 0.03 0.03 0.02 0.02 0.02 0.04 0.04 0.03 0.02 0.03 0.03 0.04 0.05 0.05 0.04 0.04 0.04 0.04 0.05 0.06 0.05 0.05 0.04 0.03
0.19 0.17 0.15 0.12 0.12 0.13 0.13 0.22 0.24 0.20 0.16 0.11 0.09 0.06 0.05 0.05 0.06 0.06 0.06 0.06 0.06 0.05 0.06 0.05 0.05 0.05 0.04 0.03 0.04 0.04 0.03 0.03 0.04 0.04 0.04 0.04 0.04 0.03 0.03 0.04 0.05 0.05 0.05
0.15 0.17 0.12 0.11 0.13 0.12 0.16 0.22 0.25 0.23 0.20 0.15 0.12 0.10 0.07 0.07 0.06 0.06 0.07 0.09 0.08 0.07 0.07 0.07 0.04 0.03 0.02 0.03 0.03 0.03 0.03 0.02 0.02 0.03 0.03 0.03 0.02 0.01 0.02 0.02 0.03 0.03 0.03
0.11 0.17 0.15 0.13 0.14 0.13 0.17 0.19 0.20 0.21 0.21 0.20 0.15 0.11 0.08 0.08 0.07 0.09 0.08 0.09 0.11 0.10 0.07 0.04 0.02 0.02 0.01 0.02 0.03 0.02 0.02 0.02 0.02 0.02 0.03 0.03 0.02 0.02 0.01 0.01 0.02 0.02 0.02
0.11 0.15 0.17 0.17 0.18 0.19 0.22 0.23 0.22 0.20 0.18 0.16 0.10 0.10 0.09 0.08 0.08 0.07 0.06 0.07 0.08 0.05 0.03 0.03 0.03 0.02 0.01 0.02 0.03 0.03 0.02 0.02 0.02 0.02 0.03 0.03 0.02 0.02 0.02 0.02 0.01 0.01 0.01
0.10 0.14 0.13 0.18 0.18 0.18 0.20 0.17 0.16 0.15 0.14 0.11 0.10 0.12 0.11 0.08 0.07 0.07 0.06 0.07 0.07 0.04 0.02 0.02 0.02 0.02 0.02 0.02 0.02 0.02 0.02 0.03 0.03 0.04 0.03 0.03 0.03 0.03 0.03 0.02 0.02 0.02 0.02
0.06 0.09 0.10 0.12 0.14 0.14 0.15 0.15 0.14 0.14 0.14 0.13 0.12 0.14 0.13 0.12 0.09 0.05 0.04 0.05 0.05 0.05 0.04 0.03 0.03 0.03 0.02 0.03 0.03 0.02 0.01 0.02 0.03 0.04 0.04 0.03 0.04 0.04 0.03 0.04 0.03 0.03 0.03
0.03 0.05 0.09 0.08 0.09 0.10 0.12 0.13 0.13 0.14 0.15 0.15 0.13 0.16 0.18 0.17 0.12 0.08 0.07 0.06 0.04 0.05 0.05 0.04 0.03 0.04 0.04 0.03 0.05 0.04 0.02 0.02 0.03 0.04 0.03 0.04 0.04 0.04 0.04 0.04 0.04 0.04 0.04
0.03 0.04 0.05 0.05 0.08 0.09 0.11 0.11 0.12 0.12 0.12 0.12 0.10 0.11 0.13 0.12 0.11 0.10 0.09 0.08 0.08 0.07 0.05 0.04 0.05 0.05 0.04 0.03 0.04 0.04 0.03 0.02 0.02 0.03 0.02 0.03 0.03 0.04 0.03 0.03 0.03 0.04 0.04
0.04 0.04 0.05 0.05 0.06 0.07 0.09 0.11 0.10 0.08 0.09 0.09 0.08 0.09 0.10 0.10 0.10 0.09 0.10 0.10 0.09 0.07 0.05 0.04 0.04 0.03 0.03 0.03 0.02 0.03 0.03 0.03 0.02 0.02 0.02 0.02 0.03 0.02 0.02 0.03 0.03 0.03 0.03
0.06 0.07 0.07 0.06 0.06 0.07 0.08 0.09 0.09 0.08 0.08 0.09 0.07 0.08 0.09 0.11 0.12 0.12 0.09 0.09 0.08 0.06 0.05 0.05 0.04 0.04 0.03 0.03 0.05 0.07 0.08 0.07 0.04 0.01 0.01 0.01 0.02 0.02 0.02 0.03 0.03 0.03 0.04
0.05 0.04 0.04 0.06 0.07 0.07 0.07 0.08 0.09 0.09 0.08 0.08 0.08 0.08 0.09 0.10 0.13 0.12 0.09 0.08 0.08 0.06 0.06 0.05 0.04 0.04 0.06 0.12 0.08 0.09 0.08 0.05 0.03 0.03 0.02 0.02 0.02 0.02 0.03 0.03 0.03 0.03 0.04
0.06 0.05 0.04 0.04 0.04 0.05 0.07 0.09 0.09 0.09 0.09 0.08 0.08 0.09 0.09 0.08 0.11 0.11 0.11 0.10 0.09 0.08 0.08 0.08 0.06 0.06 0.07 0.08 0.07 0.06 0.05 0.04 0.03 0.03 0.03 0.02 0.02 0.02 0.03 0.03 0.02 0.02 0.02
0.08 0.11 0.09 0.06 0.05 0.05 0.06 0.07 0.08 0.08 0.07 0.07 0.07 0.08 0.08 0.08 0.08 0.09 0.10 0.11 0.10 0.10 0.09 0.09 0.07 0.07 0.06 0.08 0.07 0.04 0.03 0.05 0.04 0.04 0.04 0.04 0.04 0.03 0.04 0.03 0.02 0.01 0.01
0.08 0.11 0.14 0.12 0.09 0.07 0.07 0.07 0.07 0.07 0.07 0.08 0.07 0.08 0.08 0.08 0.08 0.08 0.09 0.09 0.10 0.10 0.09 0.08 0.06 0.06 0.06 0.04 0.06 0.05 0.05 0.05 0.04 0.03 0.03 0.04 0.05 0.04 0.04 0.02 0.02 0.01 0.01
0.05 0.06 0.10 0.11 0.09 0.08 0.08 0.07 0.07 0.07 0.06 0.06 0.07 0.06 0.07 0.07 0.06 0.06 0.06 0.06 0.07 0.07 0.08 0.07 0.04 0.04 0.06 0.04 0.05 0.06 0.06 0.06 0.05 0.04 0.03 0.03 0.03 0.03 0.03 0.02 0.02 0.02 0.02
0.04 0.05 0.06 0.06 0.06 0.06 0.06 0.06 0.06 0.06 0.05 0.05 0.04 0.03 0.03 0.04 0.04 0.04 0.04 0.05 0.05 0.06 0.07 0.06 0.04 0.03 0.04 0.04 0.05 0.04 0.03 0.03 0.05 0.04 0.04 0.03 0.02 0.01 0.02 0.02 0.03 0.04 0.04
0.04 0.04 0.04 0.05 0.05 0.04 0.04 0.04 0.04 0.04 0.03 0.03 0.02 0.02 0.02 0.03 0.04 0.05 0.04 0.05 0.05 0.04 0.07 0.05 0.04 0.04 0.02 0.03 0.03 0.02 0.02 0.03 0.01 0.01 0.02 0.02 0.02 0.01 0.01 0.01 0.02 0.04 0.05
0.03 0.03 0.04 0.03 0.03 0.03 0.02 0.02 0.03 0.03 0.03 0.03 0.03 0.03 0.03 0.02 0.03 0.04 0.04 0.04 0.04 0.03 0.03 0.03 0.03 0.03 0.03 0.02 0.02 0.02 0.02 0.03 0.01 0.01 0.01 0.02 0.02 0.01 0.01 0.01 0.02 0.02 0.03
0.04 0.04 0.04 0.04 0.03 0.02 0.02 0.02 0.03 0.03 0.03 0.02 0.03 0.02 0.02 0.03 0.03 0.03 0.03 0.02 0.03 0.03 0.03 0.03 0.03 0.02 0.02 0.02 0.02 0.02 0.02 0.02 0.02 0.01 0.02 0.02 0.02 0.01 0.01 0.01 0.01 0.01 0.02
0.06 0.05 0.04 0.03 0.03 0.02 0.02 0.01 0.02 0.03 0.04 0.02 0.02 0.03 0.03 0.04 0.03 0.02 0.01 0.01 0.02 0.02 0.02 0.03 0.03 0.02 0.02 0.01 0.01 0.01 0.01 0.01 0.01 0.01 0.01 0.01 0.02 0.02 0.02 0.02 0.02 0.03 0.03
0.04 0.05 0.05 0.04 0.04 0.04 0.03 0.01 0.01 0.03 0.03 0.03 0.02 0.03 0.02 0.01 0.02 0.02 0.01 0.01 0.01 0.01 0.01 0.02 0.02 0.02 0.02 0.02 0.01 0.01 0.01 0.01 0.01 0.02 0.02 0.01 0.02 0.02 0.02 0.01 0.02 0.02 0.03
0.03 0.03 0.03 0.03 0.04 0.03 0.03 0.02 0.01 0.02 0.03 0.03 0.03 0.03 0.03 0.02 0.02 0.02 0.02 0.02 0.02 0.01 0.02 0.02 0.02 0.02 0.01 0.02 0.02 0.01 0.01 0.02 0.02 0.02 0.02 0.01 0.02 0.03 0.03 0.03 0.03 0.02 0.03
0.03 0.03 0.03 0.03 0.03 0.04 0.03 0.03 0.03 0.02 0.03 0.03 0.03 0.03 0.03 0.02 0.02 0.02 0.03 0.03 0.03 0.02 0.01 0.01 0.01 0.01 0.00 0.01 0.02 0.02 0.02 0.02 0.02 0.02 0.03 0.03 0.04 0.04 0.04 0.04 0.05 0.06 0.07
0.03 0.03 0.02 0.02 0.02 0.03 0.03 0.03 0.03 0.02 0.03 0.03 0.03 0.03 0.03 0.02 0.01 0.02 0.01 0.01 0.02 0.02 0.02 0.01 0.01 0.01 0.01 0.01 0.02 0.03 0.04 0.03 0.03 0.03 0.04 0.04 0.04 0.05 0.05 0.05 0.06 0.08 0.08
MSLP
1012.42 1012.73 1013.05 1013.38 1013.71 1014.03 1014.32 1014.56 1014.73 1014.84 1014.86 1014.84 1014.78 1014.73 1014.71 1014.76 1014.89 1015.10 1015.36 1015.64 1015.92 1016.17 1016.36 1016.49 1016.56 1016.61 1016.64 1016.70 1016.78 1016.91 1017.08 1017.28 1017.50 1017.72 1017.93 1018.13 1018.31 1018.49 1018.66 1018.83 1019.02 1019.20 1019.39
1012.20 1012.53 1012.87 1013.22 1013.57 1013.90 1014.21 1014.48 1014.69 1014.83 1014.92 1014.95 1014.95 1014.95 1014.98 1015.04 1015.16 1015.34 1015.56 1015.80 1016.03 1016.24 1016.42 1016.54 1016.62 1016.67 1016.71 1016.76 1016.82 1016.92 1017.05 1017.21 1017.39 1017.59 1017.78 1017.96 1018.14 1018.31 1018.47 1018.64 1018.81 1018.98 1019.17
1012.06 1012.40 1012.76 1013.13 1013.49 1013.85 1014.17 1014.46 1014.70 1014.88 1015.02 1015.11 1015.17 1015.22 1015.28 1015.35 1015.45 1015.59 1015.75 1015.94 1016.13 1016.31 1016.48 1016.61 1016.72 1016.80 1016.86 1016.91 1016.97 1017.05 1017.14 1017.25 1017.39 1017.54 1017.69 1017.84 1017.99 1018.14 1018.28 1018.42 1018.57 1018.73 1018.91
1011.93 1012.29 1012.67 1013.06 1013.45 1013.81 1014.15 1014.45 1014.71 1014.92 1015.10 1015.25 1015.36 1015.46 1015.54 1015.63 1015.71 1015.81 1015.93 1016.06 1016.22 1016.38 1016.54 1016.70 1016.84 1016.97 1017.07 1017.15 1017.22 1017.28 1017.34 1017.41 1017.48 1017.57 1017.66 1017.76 1017.86 1017.96 1018.05 1018.15 1018.27 1018.41 1018.59
1011.76 1012.15 1012.56 1012.97 1013.37 1013.75 1014.09 1014.40 1014.67 1014.91 1015.13 1015.32 1015.48 1015.62 1015.74 1015.84 1015.92 1016.00 1016.08 1016.17 1016.29 1016.44 1016.61 1016.79 1016.98 1017.16 1017.31 1017.44 1017.52 1017.58 1017.61 1017.63 1017.65 1017.66 1017.68 1017.71 1017.73 1017.76 1017.79 1017.83 1017.90 1018.01 1018.17
1011.49 1011.91 1012.36 1012.81 1013.24 1013.63 1013.98 1014.29 1014.56 1014.82 1015.06 1015.29 1015.50 1015.69 1015.85 1015.98 1016.07 1016.14 1016.20 1016.26 1016.36 1016.50 1016.67 1016.88 1017.11 1017.34 1017.55 1017.72 1017.83 1017.90 1017.92 1017.90 1017.85 1017.80 1017.73 1017.66 1017.59 1017.53 1017.47 1017.44 1017.44 1017.50 1017.63
1011.12 1011.58 1012.07 1012.56 1013.02 1013.44 1013.79 1014.10 1014.38 1014.64 1014.91 1015.17 1015.43 1015.67 1015.88 1016.05 1016.17 1016.25 1016.30 1016.36 1016.43 1016.55 1016.73 1016.95 1017.21 1017.49 1017.74 1017.95 1018.10 1018.18 1018.20 1018.15 1018.06 1017.93 1017.78 1017.62 1017.44 1017.27 1017.11 1016.98 1016.90 1016.90 1016.99
1010.67 1011.16 1011.70 1012.24 1012.74 1013.18 1013.55 1013.86 1014.14 1014.41 1014.68 1014.98 1015.29 1015.59 1015.86 1016.08 1016.24 1016.34 1016.40 1016.44 1016.50 1016.59 1016.75 1016.97 1017.24 1017.54 1017.83 1018.08 1018.27 1018.38 1018.41 1018.36 1018.23 1018.05 1017.83 1017.57 1017.29 1017.00 1016.73 1016.49 1016.32 1016.24 1016.28
1010.19 1010.72 1011.29 1011.87 1012.41 1012.87 1013.25 1013.57 1013.85 1014.13 1014.42 1014.75 1015.10 1015.45 1015.79 1016.07 1016.27 1016.40 1016.47 1016.50 1016.53 1016.60 1016.72 1016.92 1017.18 1017.48 1017.79 1018.08 1018.31 1018.46 1018.52 1018.48 1018.35 1018.14 1017.86 1017.52 1017.15 1016.76 1016.37 1016.03 1015.76 1015.60 1015.58
1009.73 1010.28 1010.88 1011.49 1012.05 1012.53 1012.93 1013.25 1013.54 1013.82 1014.13 1014.49 1014.88 1015.28 1015.67 1016.00 1016.26 1016.41 1016.49 1016.51 1016.51 1016.53 1016.61 1016.77 1017.00 1017.30 1017.63 1017.94 1018.22 1018.42 1018.52 1018.52 1018.41 1018.19 1017.88 1017.50 1017.05 1016.58 1016.10 1015.67 1015.31 1015.07 1014.99
1009.32 1009.87 1010.48 1011.10 1011.67 1012.16 1012.57 1012.90 1013.19 1013.48 1013.80 1014.18 1014.61 1015.06 1015.50 1015.88 1016.17 1016.35 1016.44 1016.44 1016.41 1016.39 1016.42 1016.53 1016.73 1017.02 1017.35 1017.70 1018.02 1018.27 1018.44 1018.49 1018.42 1018.22 1017.92 1017.51 1017.03 1016.51 1015.97 1015.47 1015.05 1014.75 1014.62
1008.95 1009.49 1010.08 1010.69 1011.25 1011.74 1012.15 1012.48 1012.77 1013.08 1013.42 1013.82 1014.28 1014.77 1015.25 1015.67 1016.00 1016.20 1016.29 1016.29 1016.24 1016.18 1016.17 1016.24 1016.41 1016.68 1017.01 1017.38 1017.75 1018.06 1018.29 1018.41 1018.39 1018.25 1017.97 1017.58 1017.11 1016.57 1016.01 1015.49 1015.03 1014.70 1014.53
1008.59 1009.10 1009.66 1010.24 1010.78 1011.25 1011.64 1011.98 1012.28 1012.60 1012.96 1013.39 1013.87 1014.39 1014.91 1015.36 1015.72 1015.95 1016.06 1016.06 1016.00 1015.93 1015.89 1015.93 1016.08 1016.34 1016.68 1017.07 1017.47 1017.84 1018.13 1018.31 1018.36 1018.28 1018.05 1017.71 1017.27 1016.77 1016.24 1015.73 1015.28 1014.95 1014.77
1008.21 1008.67 1009.19 1009.72 1010.23 1010.67 1011.06 1011.39 1011.71 1012.04 1012.43 1012.88 1013.39 1013.94 1014.48 1014.97 1015.36 1015.62 1015.75 1015.78 1015.73 1015.66 1015.62 1015.66 1015.80 1016.05 1016.40 1016.81 1017.23 1017.64 1017.98 1018.22 1018.33 1018.31 1018.16 1017.89 1017.52 1017.09 1016.62 1016.17 1015.77 1015.47 1015.31
1007.78 1008.20 1008.67 1009.15 1009.62 1010.04 1010.41 1010.75 1011.08 1011.44 1011.85 1012.32 1012.85 1013.42 1013.99 1014.50 1014.92 1015.22 1015.40 1015.46 1015.45 1015.41 1015.40 1015.45 1015.61 1015.86 1016.21 1016.63 1017.07 1017.49 1017.86 1018.14 1018.31 1018.35 1018.27 1018.09 1017.81 1017.47 1017.10 1016.75 1016.43 1016.19 1016.06
1007.31 1007.70 1008.13 1008.57 1008.99 1009.39 1009.76 1010.11 1010.46 1010.84 1011.27 1011.76 1012.31 1012.89 1013.47 1014.00 1014.45 1014.79 1015.01 1015.12 1015.17 1015.19 1015.22 1015.31 1015.49 1015.76 1016.11 1016.52 1016.96 1017.39 1017.77 1018.07 1018.27 1018.36 1018.36 1018.26 1018.08 1017.86 1017.61 1017.37 1017.16 1017.01 1016.93
1006.86 1007.23 1007.63 1008.03 1008.44 1008.82 1009.19 1009.55 1009.92 1010.31 1010.75 1011.25 1011.80 1012.37 1012.95 1013.49 1013.95 1014.32 1014.59 1014.76 1014.87 1014.96 1015.05 1015.19 1015.40 1015.69 1016.05 1016.46 1016.88 1017.29 1017.67 1017.97 1018.19 1018.33 1018.38 1018.36 1018.29 1018.18 1018.06 1017.94 1017.84 1017.78 1017.78
1006.47 1006.84 1007.23 1007.62 1008.01 1008.39 1008.76 1009.12 1009.50 1009.89 1010.33 1010.81 1011.34 1011.89 1012.44 1012.96 1013.43 1013.82 1014.12 1014.35 1014.52 1014.67 1014.83 1015.03 1015.28 1015.59 1015.96 1016.35 1016.76 1017.15 1017.51 1017.80 1018.03 1018.20 1018.30 1018.36 1018.38 1018.38 1018.38 1018.37 1018.38 1018.42 1018.48
1006.21 1006.59 1006.98 1007.37 1007.75 1008.13 1008.50 1008.86 1009.22 1009.60 1010.01 1010.46 1010.93 1011.43 1011.94 1012.42 1012.86 1013.25 1013.57 1013.84 1014.07 1014.28 1014.51 1014.76 1015.05 1015.38 1015.75 1016.15 1016.54 1016.91 1017.25 1017.54 1017.77 1017.96 1018.11 1018.23 1018.33 1018.42 1018.51 1018.61 1018.72 1018.83 1018.96
1006.10 1006.50 1006.90 1007.29 1007.67 1008.04 1008.39 1008.73 1009.07 1009.41 1009.77 1010.15 1010.55 1010.98 1011.41 1011.83 1012.23 1012.60 1012.92 1013.22 1013.49 1013.75 1014.03 1014.32 1014.65 1015.01 1015.39 1015.79 1016.17 1016.53 1016.86 1017.14 1017.39 1017.60 1017.78 1017.95 1018.11 1018.28 1018.45 1018.63 1018.81 1019.00 1019.18
1006.13 1006.54 1006.95 1007.34 1007.71 1008.06 1008.39 1008.70 1008.98 1009.26 1009.55 1009.84 1010.16 1010.49 1010.84 1011.19 1011.53 1011.87 1012.18 1012.48 1012.78 1013.08 1013.39 1013.72 1014.08 1014.47 1014.86 1015.26 1015.64 1016.00 1016.33 1016.63 1016.88 1017.12 1017.33 1017.54 1017.75 1017.97 1018.19 1018.43 1018.67 1018.92 1019.15
1006.24 1006.66 1007.07 1007.45 1007.81 1008.13 1008.42 1008.67 1008.90 1009.11 1009.31 1009.51 1009.74 1009.98 1010.24 1010.51 1010.80 1011.09 1011.38 1011.68 1011.99 1012.31 1012.65 1013.01 1013.39 1013.78 1014.19 1014.59 1014.98 1015.35 1015.69 1015.99 1016.27 1016.53 1016.77 1017.01 1017.25 1017.51 1017.78 1018.06 1018.34 1018.63 1018.92
1006.37 1006.79 1007.19 1007.55 1007.88 1008.17 1008.41 1008.61 1008.77 1008.90 1009.02 1009.15 1009.29 1009.45 1009.63 1009.84 1010.08 1010.34 1010.61 1010.90 1011.21 1011.53 1011.88 1012.24 1012.63 1013.03 1013.44 1013.84 1014.23 1014.61 1014.95 1015.27 1015.57 1015.85 1016.11 1016.38 1016.65 1016.93 1017.22 1017.53 1017.86 1018.19 1018.52
1006.48 1006.88 1007.25 1007.59 1007.88 1008.13 1008.32 1008.47 1008.57 1008.65 1008.71 1008.77 1008.85 1008.96 1009.10 1009.26 1009.46 1009.70 1009.95 1010.23 1010.52 1010.84 1011.18 1011.54 1011.91 1012.29 1012.69 1013.08 1013.46 1013.83 1014.17 1014.50 1014.81 1015.10 1015.38 1015.66 1015.95 1016.25 1016.57 1016.90 1017.26 1017.63 1018.01
1006.53 1006.90 1007.24 1007.55 1007.81 1008.02 1008.18 1008.28 1008.35 1008.39 1008.42 1008.45 1008.50 1008.58 1008.69 1008.84 1009.02 1009.24 1009.48 1009.74 1010.02 1010.31 1010.62 1010.95 1011.29 1011.64 1011.99 1012.35 1012.70 1013.05 1013.38 1013.70 1014.00 1014.30 1014.59 1014.88 1015.18 1015.50 1015.83 1016.19 1016.58 1016.99 1017.42
1006.55 1006.88 1007.19 1007.47 1007.70 1007.88 1008.01 1008.10 1008.15 1008.18 1008.21 1008.23 1008.28 1008.36 1008.47 1008.61 1008.78 1008.98 1009.21 1009.44 1009.69 1009.95 1010.22 1010.50 1010.78 1011.08 1011.38 1011.68 1011.98 1012.29 1012.59 1012.88 1013.17 1013.46 1013.74 1014.04 1014.34 1014.67 1015.02 1015.41 1015.83 1016.28 1016.76
Thickness
5776 5775 5774 5773 5772 5771 5770 5768 5766 5766 5765 5765 5765 5765 5764 5762 5760 5757 5754 5752 5750 5749 5747 5746 5745 5743 5741 5740 5738 5736 5735 5734 5732 5730 5729 5727 5726 5724 5723 5721 5719 5718 5717
5776 5774 5773 5772 5771 5771 5770 5768 5766 5765 5764 5763 5762 5763 5763 5761 5759 5757 5754 5751 5749 5748 5747 5746 5744 5743 5741 5739 5738 5736 5734 5733 5731 5730 5728 5726 5725 5723 5721 5719 5718 5717 5715
5777 5775 5773 5771 5771 5770 5769 5767 5765 5764 5762 5761 5760 5761 5760 5759 5758 5756 5754 5751 5749 5747 5746 5745 5743 5742 5741 5739 5737 5735 5734 5732 5730 5729 5727 5726 5724 5722 5720 5718 5717 5715 5714
5778 5776 5774 5773 5772 5770 5769 5766 5764 5761 5760 5758 5758 5758 5758 5757 5757 5755 5753 5752 5749 5747 5745 5744 5743 5742 5740 5739 5737 5735 5733 5731 5730 5728 5726 5724 5723 5721 5719 5717 5715 5714 5712
5779 5777 5776 5774 5773 5771 5769 5767 5764 5761 5758 5756 5755 5755 5755 5755 5755 5753 5753 5752 5750 5748 5745 5744 5742 5741 5740 5738 5736 5734 5732 5730 5729 5727 5725 5723 5721 5719 5718 5716 5714 5712 5711
5780 5778 5776 5775 5773 5770 5767 5765 5762 5760 5758 5756 5755 5753 5753 5753 5754 5753 5753 5752 5750 5748 5746 5745 5742 5740 5738 5737 5735 5733 5731 5730 5728 5726 5724 5722 5720 5718 5717 5715 5713 5711 5710
5780 5778 5777 5774 5772 5769 5767 5765 5762 5758 5756 5756 5751 5747 5749 5752 5752 5753 5753 5751 5750 5749 5747 5745 5743 5741 5738 5736 5734 5732 5730 5729 5727 5725 5723 5721 5719 5718 5716 5714 5712 5710 5709
5780 5779 5776 5773 5771 5768 5766 5764 5761 5757 5756 5756 5750 5744 5739 5741 5746 5752 5751 5750 5749 5749 5747 5745 5743 5740 5739 5736 5733 5731 5729 5727 5726 5724 5721 5719 5718 5716 5714 5713 5711 5709 5708
5780 5778 5776 5774 5771 5768 5765 5763 5761 5758 5753 5754 5754 5748 5739 5735 5738 5744 5747 5747 5747 5746 5745 5744 5742 5740 5738 5736 5733 5730 5728 5726 5724 5722 5720 5718 5716 5715 5713 5711 5710 5708 5707
5780 5778 5776 5774 5771 5768 5765 5763 5761 5759 5755 5751 5752 5753 5750 5746 5738 5734 5738 5742 5744 5742 5742 5742 5740 5738 5737 5735 5733 5730 5727 5724 5722 5720 5718 5716 5715 5713 5712 5710 5708 5706 5705
5779 5778 5775 5773 5770 5767 5765 5763 5761 5758 5756 5753 5751 5750 5749 5747 5745 5736 5730 5734 5736 5739 5739 5738 5737 5735 5734 5732 5730 5726 5725 5722 5719 5717 5716 5714 5713 5711 5709 5708 5706 5704 5702
5779 5778 5776 5773 5770 5767 5765 5763 5760 5758 5756 5754 5752 5751 5748 5745 5741 5738 5732 5730 5730 5734 5736 5736 5735 5733 5731 5729 5727 5724 5722 5718 5716 5715 5713 5712 5710 5708 5707 5705 5704 5702 5700
5778 5777 5776 5773 5771 5768 5765 5763 5760 5758 5756 5754 5751 5750 5749 5747 5746 5741 5735 5731 5729 5731 5732 5733 5733 5731 5729 5726 5723 5722 5719 5717 5714 5713 5711 5710 5708 5705 5704 5702 5700 5698 5697
5779 5779 5776 5773 5771 5768 5766 5762 5760 5757 5756 5753 5752 5750 5748 5747 5746 5743 5737 5731 5725 5725 5727 5728 5731 5729 5727 5724 5720 5719 5716 5714 5711 5710 5708 5707 5704 5702 5700 5698 5696 5694 5693
5781 5779 5776 5773 5770 5768 5765 5762 5758 5757 5755 5753 5751 5749 5746 5745 5744 5743 5740 5736 5728 5720 5720 5724 5725 5727 5725 5722 5719 5716 5714 5711 5709 5706 5705 5703 5701 5699 5696 5694 5692 5690 5688
5779 5777 5774 5771 5769 5766 5764 5761 5758 5756 5753 5751 5749 5746 5744 5744 5742 5741 5739 5736 5733 5726 5720 5724 5723 5723 5721 5719 5716 5714 5711 5708 5705 5703 5701 5699 5697 5694 5692 5690 5688 5686 5684
5777 5774 5772 5769 5766 5764 5761 5758 5756 5754 5751 5748 5747 5745 5742 5741 5739 5738 5736 5734 5731 5727 5720 5720 5722 5720 5717 5714 5712 5711 5708 5705 5702 5699 5697 5695 5693 5690 5688 5686 5684 5682 5680
5774 5772 5769 5766 5764 5762 5760 5757 5754 5752 5749 5746 5744 5743 5741 5740 5736 5734 5732 5730 5728 5726 5721 5715 5715 5714 5712 5711 5709 5707 5705 5702 5699 5697 5694 5692 5689 5686 5684 5681 5679 5677 5675
5771 5769 5766 5763 5761 5759 5757 5754 5752 5749 5747 5744 5742 5740 5738 5736 5732 5731 5729 5727 5725 5724 5720 5715 5712 5711 5709 5707 5704 5702 5700 5698 5696 5694 5691 5688 5686 5683 5680 5678 5676 5674 5671
5768 5766 5764 5761 5759 5757 5754 5752 5749 5746 5743 5741 5740 5737 5735 5733 5730 5727 5726 5723 5721 5718 5716 5713 5709 5707 5704 5702 5699 5695 5692 5692 5691 5690 5687 5685 5682 5679 5676 5674 5672 5670 5667
5765 5763 5761 5758 5757 5754 5751 5749 5746 5744 5740 5738 5736 5734 5732 5730 5727 5724 5722 5719 5717 5713 5710 5707 5704 5702 5698 5694 5691 5690 5687 5686 5685 5685 5682 5680 5678 5675 5672 5669 5667 5666 5664
5760 5759 5756 5754 5751 5750 5747 5744 5741 5739 5737 5733 5731 5729 5727 5725 5722 5719 5717 5714 5712 5708 5704 5701 5699 5696 5693 5690 5688 5685 5682 5679 5676 5679 5676 5675 5674 5671 5670 5667 5665 5662 5660
5755 5752 5751 5748 5745 5743 5741 5739 5736 5734 5732 5730 5727 5725 5724 5723 5718 5714 5711 5709 5707 5704 5701 5697 5694 5693 5690 5688 5684 5680 5677 5673 5672 5674 5671 5669 5669 5667 5667 5665 5662 5659 5657
5750 5748 5746 5744 5741 5739 5736 5733 5730 5729 5727 5726 5724 5722 5718 5715 5714 5709 5707 5704 5702 5700 5697 5695 5692 5690 5688 5685 5681 5677 5673 5671 5670 5669 5667 5663 5664 5662 5663 5660 5658 5656 5653
5746 5743 5741 5739 5736 5733 5730 5727 5724 5724 5722 5720 5719 5717 5714 5710 5708 5705 5702 5699 5696 5694 5693 5691 5688 5685 5682 5679 5676 5671 5667 5664 5661 5662 5662 5658 5657 5656 5655 5654 5652 5650 5648
5742 5740 5737 5734 5731 5728 5724 5720 5717 5718 5715 5714 5713 5711 5708 5705 5702 5699 5696 5693 5689 5688 5687 5684 5680 5678 5676 5673 5670 5667 5663 5659 5656 5655 5657 5653 5651 5649 5646 5647 5646 5644 5641